• In France
  • List of Countries
  • For 7 days
  • Water Temperature
  • Satellite Maps
  • Weather Map
  • Weather Widgets
  • user-avatar
    Login

    Hourly Weather Ibigs

    Today, 18 December, Monday

    Time Temperature Precipitation Wind Pressure Humidity
    00:00 +18°C° 0 mm 2 mps 648 mmHg 37%
    01:00 +17°C° 0 mm 2 mps 648 mmHg 35%
    02:00 +17°C° 0 mm 2 mps 648 mmHg 35%
    03:00 +18°C° 0 mm 1 mps 647 mmHg 35%
    04:00 +16°C° 0 mm 1 mps 647 mmHg 35%
    05:00 +18°C° 0 mm 1 mps 648 mmHg 36%
    06:00 +18°C° 0 mm 1 mps 648 mmHg 37%
    07:00 +19°C° 0 mm 1 mps 649 mmHg 38%
    08:00 +22°C° 0 mm 1 mps 649 mmHg 35%
    09:00 +24°C° 0 mm 2 mps 650 mmHg 33%
    10:00 +27°C° 0 mm 2 mps 651 mmHg 30%
    11:00 +28°C° 0 mm 2 mps 650 mmHg 29%
    12:00 +29°C° 0 mm 2 mps 650 mmHg 27%
    13:00 +31°C° 0 mm 2 mps 650 mmHg 26%
    14:00 +30°C° 0 mm 2 mps 649 mmHg 26%
    15:00 +30°C° 0 mm 2 mps 649 mmHg 27%
    16:00 +30°C° 0 mm 1 mps 648 mmHg 28%
    17:00 +27°C° 0 mm 1 mps 648 mmHg 34%
    18:00 +24°C° 0 mm 2 mps 648 mmHg 40%
    19:00 +20°C° 0 mm 2 mps 647 mmHg 47%
    20:00 +19°C° 0 mm 2 mps 648 mmHg 44%
    21:00 +19°C° 0 mm 2 mps 648 mmHg 41%
    22:00 +18°C° 0 mm 2 mps 649 mmHg 38%
    23:00 +18°C° 0 mm 2 mps 649 mmHg 35%

    Tomorrow, 19 December, Tuesday

    Time Temperature Precipitation Wind Pressure Humidity
    00:00 +17°C° 0 mm 2 mps 649 mmHg 31%
    01:00 +17°C° 0 mm 2 mps 648 mmHg 28%
    02:00 +17°C° 0 mm 2 mps 648 mmHg 28%
    03:00 +16°C° 0 mm 1 mps 648 mmHg 27%
    04:00 +16°C° 0 mm 1 mps 648 mmHg 27%
    05:00 +16°C° 0 mm 1 mps 648 mmHg 29%
    06:00 +18°C° 0 mm 1 mps 649 mmHg 31%
    07:00 +18°C° 0 mm 1 mps 649 mmHg 33%
    08:00 +21°C° 0 mm 1 mps 650 mmHg 31%
    09:00 +24°C° 0 mm 1 mps 651 mmHg 29%
    10:00 +27°C° 0 mm 1 mps 651 mmHg 27%
    11:00 +28°C° 0 mm 2 mps 651 mmHg 26%
    12:00 +29°C° 0 mm 2 mps 650 mmHg 26%
    13:00 +30°C° 0 mm 2 mps 650 mmHg 25%
    14:00 +30°C° 0 mm 2 mps 649 mmHg 26%
    15:00 +29°C° 0 mm 1 mps 648 mmHg 27%
    16:00 +29°C° 0 mm 1 mps 648 mmHg 28%
    17:00 +26°C° 0 mm 1 mps 648 mmHg 35%
    18:00 +23°C° 0 mm 1 mps 647 mmHg 42%
    19:00 +19°C° 0 mm 2 mps 647 mmHg 48%
    20:00 +19°C° 0 mm 2 mps 648 mmHg 47%
    21:00 +18°C° 0 mm 2 mps 648 mmHg 46%
    22:00 +18°C° 0 mm 2 mps 649 mmHg 44%
    23:00 +18°C° 0 mm 2 mps 649 mmHg 41%

    Day after tomorrow, 20 December, Wednesday

    Time Temperature Precipitation Wind Pressure Humidity
    00:00 +17°C° 0 mm 2 mps 648 mmHg 38%
    01:00 +18°C° 0 mm 1 mps 648 mmHg 34%
    02:00 +18°C° 0 mm 1 mps 648 mmHg 34%
    03:00 +16°C° 0 mm 1 mps 647 mmHg 33%
    04:00 +16°C° 0 mm 1 mps 647 mmHg 32%
    05:00 +16°C° 0 mm 1 mps 648 mmHg 33%
    06:00 +18°C° 0 mm 1 mps 648 mmHg 34%
    07:00 +18°C° 0 mm 1 mps 649 mmHg 35%
    08:00 +21°C° 0 mm 1 mps 649 mmHg 32%
    09:00 +24°C° 0 mm 1 mps 650 mmHg 29%
    10:00 +27°C° 0 mm 1 mps 651 mmHg 26%
    11:00 +28°C° 0 mm 1 mps 650 mmHg 26%
    12:00 +29°C° 0 mm 1 mps 650 mmHg 25%
    13:00 +30°C° 0 mm 2 mps 649 mmHg 24%
    14:00 +30°C° 0 mm 1 mps 649 mmHg 26%
    15:00 +29°C° 0 mm 1 mps 648 mmHg 27%
    16:00 +29°C° 0 mm 1 mps 647 mmHg 28%
    17:00 +26°C° 0 mm 1 mps 647 mmHg 36%
    18:00 +23°C° 0 mm 1 mps 647 mmHg 43%
    19:00 +20°C° 0 mm 1 mps 647 mmHg 50%
    20:00 +20°C° 0 mm 1 mps 647 mmHg 49%
    21:00 +19°C° 0 mm 1 mps 648 mmHg 49%
    22:00 +19°C° 0 mm 1 mps 648 mmHg 49%
    23:00 +18°C° 0 mm 1 mps 648 mmHg 47%

    21 December, Thursday

    Time Temperature Precipitation Wind Pressure Humidity
    00:00 +18°C° 0 mm 1 mps 647 mmHg 45%
    01:00 +18°C° 0 mm 1 mps 647 mmHg 43%
    02:00 +16°C° 0 mm 1 mps 647 mmHg 41%
    03:00 +16°C° 0 mm 1 mps 647 mmHg 40%
    04:00 +16°C° 0 mm 1 mps 646 mmHg 38%
    05:00 +16°C° 0 mm 1 mps 647 mmHg 39%
    06:00 +18°C° 0 mm 1 mps 648 mmHg 39%
    07:00 +18°C° 0 mm 1 mps 648 mmHg 40%
    08:00 +21°C° 0 mm 1 mps 649 mmHg 36%
    09:00 +24°C° 0 mm 1 mps 650 mmHg 33%
    10:00 +27°C° 0 mm 1 mps 651 mmHg 30%
    11:00 +28°C° 0 mm 1 mps 650 mmHg 29%
    12:00 +29°C° 0 mm 1 mps 650 mmHg 28%
    13:00 +30°C° 0 mm 2 mps 649 mmHg 27%
    14:00 +30°C° 0 mm 1 mps 648 mmHg 29%
    15:00 +29°C° 0 mm 1 mps 648 mmHg 30%
    16:00 +29°C° 0 mm 1 mps 647 mmHg 31%
    17:00 +26°C° 0 mm 1 mps 647 mmHg 38%
    18:00 +23°C° 0 mm 1 mps 647 mmHg 46%
    19:00 +21°C° 0 mm 1 mps 647 mmHg 53%
    20:00 +20°C° 0 mm 1 mps 647 mmHg 54%
    21:00 +20°C° 0 mm 1 mps 648 mmHg 54%
    22:00 +19°C° 0 mm 1 mps 648 mmHg 55%
    23:00 +19°C° 0 mm 1 mps 648 mmHg 55%

    22 December, Friday

    Time Temperature Precipitation Wind Pressure Humidity
    00:00 +18°C° 0 mm 1 mps 647 mmHg 54%
    01:00 +18°C° 0 mm 1 mps 647 mmHg 54%
    02:00 +18°C° 0 mm 1 mps 647 mmHg 54%
    03:00 +16°C° 0 mm 1 mps 647 mmHg 53%
    04:00 +16°C° 0 mm 1 mps 647 mmHg 52%
    05:00 +18°C° 0 mm 1 mps 647 mmHg 51%
    06:00 +18°C° 0 mm 1 mps 648 mmHg 50%
    07:00 +19°C° 0 mm 1 mps 649 mmHg 49%
    08:00 +22°C° 0 mm 1 mps 649 mmHg 45%
    09:00 +24°C° 0 mm 1 mps 650 mmHg 40%
    10:00 +27°C° 0 mm 1 mps 651 mmHg 36%
    11:00 +28°C° 0 mm 1 mps 650 mmHg 35%
    12:00 +29°C° 0 mm 1 mps 650 mmHg 33%
    13:00 +30°C° 0 mm 1 mps 649 mmHg 32%
    14:00 +30°C° 0 mm 1 mps 649 mmHg 33%
    15:00 +29°C° 0 mm 1 mps 648 mmHg 35%
    16:00 +29°C° 0 mm 1 mps 648 mmHg 36%
    17:00 +26°C° 0 mm 1 mps 648 mmHg 44%
    18:00 +24°C° 0 mm 1 mps 647 mmHg 51%
    19:00 +21°C° 0 mm 1 mps 647 mmHg 59%
    20:00 +21°C° 0 mm 1 mps 648 mmHg 60%
    21:00 +20°C° 0 mm 1 mps 648 mmHg 61%
    22:00 +20°C° 0 mm 1 mps 648 mmHg 63%
    23:00 +19°C° 0 mm 1 mps 648 mmHg 63%

    23 December, Saturday

    Time Temperature Precipitation Wind Pressure Humidity
    00:00 +19°C° 0 mm 1 mps 648 mmHg 64%
    01:00 +19°C° 0 mm 1 mps 648 mmHg 65%
    02:00 +19°C° 0 mm 1 mps 648 mmHg 65%
    03:00 +18°C° 0 mm 1 mps 648 mmHg 64%
    04:00 +18°C° 0 mm 1 mps 647 mmHg 64%
    05:00 +19°C° 0 mm 1 mps 648 mmHg 63%
    06:00 +19°C° 0 mm 1 mps 649 mmHg 62%
    07:00 +20°C° 0 mm 1 mps 649 mmHg 61%
    08:00 +22°C° 0 mm 1 mps 650 mmHg 55%
    09:00 +24°C° 0 mm 1 mps 650 mmHg 48%
    10:00 +27°C° 0 mm 1 mps 651 mmHg 42%
    11:00 +28°C° 0 mm 1 mps 650 mmHg 40%
    12:00 +29°C° 0 mm 1 mps 650 mmHg 39%
    13:00 +29°C° 0 mm 1 mps 649 mmHg 38%
    14:00 +29°C° 0 mm 1 mps 648 mmHg 39%
    15:00 +29°C° 0 mm 1 mps 648 mmHg 40%
    16:00 +28°C° 0 mm 1 mps 647 mmHg 41%
    17:00 +26°C° 0 mm 1 mps 647 mmHg 48%
    18:00 +24°C° 0 mm 1 mps 647 mmHg 55%
    19:00 +21°C° 0 mm 1 mps 647 mmHg 62%
    20:00 +21°C° 0 mm 1 mps 647 mmHg 64%
    21:00 +20°C° 0 mm 1 mps 648 mmHg 65%
    22:00 +20°C° 0 mm 1 mps 648 mmHg 67%
    23:00 +20°C° 0 mm 1 mps 648 mmHg 67%
    Show more